Phuket, Thailand

9:50 AM +07 on June 23, 2017 (GMT +0700)
Phuket International

Weather History for VTSP - November, 2012

Change the Weather History Date:

Sunday, November 11, 2012

  Actual Average Record
Temperature  
Mean Temperature 82 °F -  
Max Temperature 90 °F 88 °F 94 °F (2013)
Min Temperature 74 °F 75 °F 71 °F (2011)
Cooling Degree Days 17    
Growing Degree Days 32 (Base 50)    
Moisture  
Dew Point 74 °F    
Average Humidity 81    
Maximum Humidity 96    
Minimum Humidity 51    
Precipitation  
Precipitation 1.38 in 0.19 in - ()
Sea Level Pressure  
Sea Level Pressure 29.82 in    
Wind  
Wind Speed 2 mph ()    
Max Wind Speed 16 mph    
Max Gust Speed 30 mph    
Visibility 5.3 miles    
Events Rain , Thunderstorm    
Averages and records for this station are not official NWS values.
T = Trace of Precipitation, MM = Missing Value Source: Averaged Metar Reports

Daily Weather History Graph

Daily Weather History Graph

Search for Another Location

Airport or City:

Trip Planner

Search our weather history database for the weather conditions in past years. The results will help you decide how hot, cold, wet, or windy it might be!

Date:

Astronomy

Nov. 11, 2012 Rise Set
Actual Time 6:17 AM +07 6:03 PM +07
Civil Twilight 5:55 AM +07 6:25 PM +07
Nautical Twilight 5:30 AM +07 6:51 PM +07
Astronomical Twilight 5:05 AM +07 7:16 PM +07
Moon 3:26 AM +07 (11/11) 3:42 PM +07 (11/11)
Length of Visible Light 12h 30m
Length of Day
11h 46m
Waning Crescent, 11% of the Moon is Illuminated
Nov 11
Waning Crescent
Nov 14
New
Nov 20
First Quarter
Nov 28
Full
Dec 6
Last Quarter

Hourly Weather History & Observations

Time (+07) Temp. Heat Index Dew Point Humidity Pressure Visibility Wind Dir Wind Speed Gust Speed Precip Events Conditions
12:00 AM 77.0 °F - 75.2 °F 94% 29.86 in 6.2 mi Calm Calm - N/A   Scattered Clouds
12:30 AM 77.0 °F - 75.2 °F 94% 29.86 in 6.2 mi Calm Calm - N/A   Scattered Clouds
1:00 AM 78 °F - 75 °F 88% 29.79 in 6 mi Calm Calm - -   Scattered Clouds
1:00 AM 78.8 °F - 75.2 °F 89% 29.83 in 6.2 mi Calm Calm - N/A   Scattered Clouds
1:30 AM 78.8 °F - 75.2 °F 89% 29.83 in 6.2 mi Calm Calm - N/A   Scattered Clouds
3:00 AM 78.8 °F - 75.2 °F 89% 29.80 in 6.2 mi Calm Calm - N/A   Scattered Clouds
3:30 AM 78.8 °F - 75.2 °F 89% 29.80 in 6.2 mi Calm Calm - N/A   Scattered Clouds
4:00 AM 77.0 °F - 75.2 °F 94% 29.77 in 6.2 mi Calm Calm - N/A   Mostly Cloudy
4:30 AM 77.0 °F - 75.2 °F 94% 29.80 in 6.2 mi Calm Calm - N/A   Mostly Cloudy
5:00 AM 77.0 °F - 75.2 °F 94% 29.80 in 6.2 mi Calm Calm - N/A   Mostly Cloudy
5:30 AM 77.0 °F - 75.2 °F 94% 29.80 in 6.2 mi Calm Calm - N/A   Mostly Cloudy
6:00 AM 77.0 °F - 75.2 °F 94% 29.80 in 6.2 mi Calm Calm - N/A   Mostly Cloudy
6:30 AM 77.0 °F - 75.2 °F 94% 29.80 in 6.2 mi Calm Calm - N/A   Mostly Cloudy
7:00 AM 78 °F - 77 °F 94% 29.78 in 6 mi Calm Calm - -   Scattered Clouds
7:00 AM 77.0 °F - 75.2 °F 94% 29.83 in 6.2 mi Calm Calm - N/A   Mostly Cloudy
7:30 AM 80.6 °F 86.2 °F 75.2 °F 84% 29.83 in 6.2 mi Calm Calm - N/A   Mostly Cloudy
8:00 AM 82.4 °F 89.5 °F 75.2 °F 79% 29.86 in 6.2 mi Calm Calm - N/A   Mostly Cloudy
8:30 AM 82.4 °F 90.9 °F 77.0 °F 84% 29.86 in 6.2 mi Calm Calm - N/A   Mostly Cloudy
9:00 AM 82.4 °F 89.5 °F 75.2 °F 79% 29.89 in 6.2 mi Calm Calm - N/A   Mostly Cloudy
9:30 AM 86.0 °F 95.1 °F 75.2 °F 70% 29.89 in 5.6 mi Calm Calm - N/A   Mostly Cloudy
10:00 AM 86.0 °F 95.1 °F 75.2 °F 70% 29.89 in 5.6 mi ENE 4.6 mph - N/A   Mostly Cloudy
10:30 AM 87.8 °F 93.8 °F 71.6 °F 58% 29.89 in 5.6 mi NE 4.6 mph - N/A   Mostly Cloudy
11:00 AM 89.6 °F 98.2 °F 73.4 °F 59% 29.89 in 5.6 mi East 5.8 mph - N/A   Mostly Cloudy
11:30 AM 87.8 °F 95.6 °F 73.4 °F 62% 29.86 in 5.6 mi ENE 5.8 mph - N/A   Mostly Cloudy
12:00 PM 89.6 °F 98.2 °F 73.4 °F 59% 29.83 in 5.6 mi NE 4.6 mph - N/A   Mostly Cloudy
12:30 PM 86.0 °F 93.4 °F 73.4 °F 66% 29.80 in 5.6 mi WNW 4.6 mph - N/A   Mostly Cloudy
1:00 PM 89 °F - 73 °F 51% 29.77 in 6 mi East 5.8 mph - -   Haze
1:00 PM 87.8 °F 97.6 °F 75.2 °F 66% 29.77 in 5.6 mi NW 3.5 mph - N/A   Mostly Cloudy
1:30 PM 87.8 °F 97.6 °F 75.2 °F 66% 29.77 in 5.6 mi Variable 2.3 mph - N/A   Mostly Cloudy
2:00 PM 87.8 °F 93.8 °F 71.6 °F 58% 29.74 in 5.6 mi East 6.9 mph - N/A   Mostly Cloudy
2:30 PM 86.0 °F 93.4 °F 73.4 °F 66% 29.74 in 5.6 mi ESE 12.7 mph - N/A   Mostly Cloudy
3:00 PM 86.0 °F 93.4 °F 73.4 °F 66% 29.74 in 5.6 mi East 11.5 mph - N/A   Mostly Cloudy
3:30 PM 86.0 °F 93.4 °F 73.4 °F 66% 29.74 in 5.6 mi ESE 9.2 mph - N/A   Mostly Cloudy
4:00 PM 84.2 °F 90.9 °F 73.4 °F 70% 29.74 in 5.0 mi ESE 5.8 mph - N/A   Mostly Cloudy
4:30 PM 84.2 °F 92.3 °F 75.2 °F 74% 29.74 in 5.0 mi East 4.6 mph - N/A   Mostly Cloudy
5:00 PM 84.2 °F 92.3 °F 75.2 °F 74% 29.74 in 4.3 mi ESE 5.8 mph - N/A   Mostly Cloudy
5:30 PM 84.2 °F 92.3 °F 75.2 °F 74% 29.74 in 4.3 mi ESE 6.9 mph - N/A   Mostly Cloudy
6:00 PM 84.2 °F 92.3 °F 75.2 °F 74% 29.77 in 4.3 mi ESE 3.5 mph - N/A   Mostly Cloudy
6:30 PM 82.4 °F 89.5 °F 75.2 °F 79% 29.80 in 4.3 mi Calm Calm - N/A   Mostly Cloudy
7:00 PM 76 °F - 75 °F 96% 29.81 in 3 mi ENE 16.1 mph - - Rain , Thunderstorm Thunderstorms and Rain
7:00 PM 75.2 °F - 71.6 °F 89% 29.83 in 0.9 mi ENE 11.5 mph 29.9 mph N/A Rain Rain
7:30 PM 75.2 °F - 73.4 °F 94% 29.86 in 3.1 mi ENE 5.8 mph - N/A Rain Rain
8:00 PM 75.2 °F - 73.4 °F 94% 29.89 in 3.1 mi Variable 2.3 mph - N/A Rain Rain
8:30 PM 75.2 °F - 73.4 °F 94% 29.89 in 3.1 mi Variable 1.2 mph - N/A Rain Rain
9:00 PM 75.2 °F - 73.4 °F 94% 29.89 in 4.3 mi ESE 3.5 mph - N/A   Mostly Cloudy
9:30 PM 75.2 °F - 73.4 °F 94% 29.89 in 4.3 mi ESE 3.5 mph - N/A Rain Light Rain
10:00 PM 75.2 °F - 73.4 °F 94% 29.89 in 4.3 mi Variable 2.3 mph - N/A Rain Light Rain
10:30 PM 75.2 °F - 73.4 °F 94% 29.89 in 4.3 mi Calm Calm - N/A Rain Light Rain
11:00 PM 75.2 °F - 73.4 °F 94% 29.89 in 5.0 mi Calm Calm - N/A   Mostly Cloudy
11:30 PM 75.2 °F - 73.4 °F 94% 29.86 in 5.0 mi Calm Calm - N/A   Mostly Cloudy